Location: PACMO
(41.3967°N, 90.3760°W)
Time: 18:24:58
(UTC-05:00)

Amateur Radio Satellites - All Passes

Search period start: 24 May 2016 17:54
Search period end: 25 May 2016 17:54
Location: PACMO, 41.3967°N, 90.3760°W

Satellite Date Start Highest point End Downlink Frequencies (MHz)
Time Altitude Azimuth
CUTE-I 24 May 17:56:28 18:01:28 44° 69° (ENE) 18:06:29 437.470
GOMX 1 24 May 18:00:13 18:04:44 27° 67° (ENE) 18:09:13 467.674
KKS-1 24 May 18:01:57 18:05:04 19° 295° (WNW) 18:08:11 437.445
HO-68 24 May 18:06:16 18:08:28 12° 49° (NE) 18:10:40 435.675
LilacSat-2 24 May 18:11:47 18:15:27 47° 74° (ENE) 18:19:07 437.200
NOAA 18 24 May 18:18:34 18:24:02 87° 78° (ENE) 18:29:32 137.9125
RS-15 24 May 18:28:24 18:39:41 80° 118° (ESE) 18:51:39 29.354- 29.394
HORYU 2 24 May 18:29:48 18:30:32 10° 270° (W) 18:31:16 437.375
STARS 24 May 18:48:16 18:50:04 12° 298° (WNW) 18:51:51 437.465
Cubesat XI-IV 24 May 18:48:41 18:53:57 65° 259° (WSW) 18:59:15 437.490
BRITE-PL 24 May 18:54:38 19:00:05 55° 261° (W) 19:05:42 437.365/2234.400
AUBIESAT-1 24 May 18:55:12 18:58:22 21° 63° (ENE) 19:01:23 437.475
NOAA 15 24 May 18:56:55 19:01:48 37° 262° (W) 19:06:42 137.62
M-CUBED/EXP-1 PRIME 24 May 18:58:16 19:01:55 28° 65° (ENE) 19:05:21 437.505
Cosmos 2504 24 May 19:01:03 19:08:08 64° 281° (W) 19:15:38 435.465 / 435.565
STRAND 1 24 May 19:03:01 19:05:35 14° 90° (E) 19:08:08 437.568
DOVE 4 24 May 19:05:51 19:10:57 52° 73° (ENE) 19:15:55 437.250
CUBESAT XI-V 24 May 19:06:42 19:11:11 45° 289° (WNW) 19:15:40 437.345
PCSat 24 May 19:08:05 19:12:57 32° 51° (NE) 19:17:47 145.827
CANX-2 24 May 19:23:10 19:26:25 22° 67° (ENE) 19:29:41 2200.000
SEEDS 24 May 19:33:15 19:36:07 18° 66° (ENE) 19:39:00 437.485
GOMX 1 24 May 19:37:20 19:42:33 43° 263° (W) 19:47:44 467.674
CUTE-I 24 May 19:37:29 19:41:41 24° 266° (W) 19:45:54 437.470
CUBEBUG 2 24 May 19:41:35 19:42:43 11° 62° (ENE) 19:43:51 437.445
HO-68 24 May 19:47:45 19:54:43 59° 68° (ENE) 20:01:42 435.675
YUBILEINY 24 May 19:47:52 19:50:40 12° 305° (NW) 19:53:29 435.215
LilacSat-2 24 May 19:48:38 19:50:01 12° 269° (W) 19:51:23 437.200
CUTE 1.7 + AOD 2 24 May 19:50:21 19:54:13 37° 71° (ENE) 19:58:07 437.475
O/OREOS (USA 219) 24 May 19:53:09 19:57:24 39° 62° (ENE) 20:01:35 437.305
CINEMA 3 24 May 20:01:52 20:06:36 58° 74° (ENE) 20:11:08 145.822/145.860
NOAA 18 24 May 20:03:30 20:05:22 12° 271° (W) 20:07:14 137.9125
BEESAT 3 24 May 20:06:56 20:08:53 13° 41° (NE) 20:10:50 437.485
UWE-3 24 May 20:15:29 20:18:20 17° 66° (ENE) 20:21:08 435.000/436.395/437.385
COMPASS 1 24 May 20:24:24 20:28:20 47° 73° (ENE) 20:32:20 437.405
AUBIESAT-1 24 May 20:28:51 20:32:42 33° 257° (WSW) 20:36:20 437.475
FUNcube-1 24 May 20:29:36 20:32:04 15° 65° (ENE) 20:34:31 145.935
AAUSAT CUBESAT 2 24 May 20:30:21 20:34:15 43° 72° (ENE) 20:38:12 437.432
M-CUBED/EXP-1 PRIME 24 May 20:32:48 20:36:25 25° 258° (WSW) 20:39:49 437.505
PRISM 24 May 20:39:36 20:42:48 21° 95° (E) 20:45:58 437.425
STRAND 1 24 May 20:40:07 20:45:15 71° 286° (WNW) 20:50:22 437.568
RS-15 24 May 20:43:00 20:53:28 38° 325° (NW) 21:04:29 29.354- 29.394
DOVE 4 24 May 20:45:05 20:48:51 20° 268° (W) 20:52:34 437.250
PCSat 24 May 20:51:23 20:56:24 39° 249° (WSW) 21:01:22 145.827
CANX-2 24 May 20:58:22 21:02:06 31° 264° (W) 21:05:52 2200.000
BEESAT 2 24 May 21:02:08 21:05:28 24° 47° (NE) 21:08:45 435.950
Cosmos 2504 24 May 21:02:17 21:03:22 10° 304° (NW) 21:04:28 435.465 / 435.565
SEEDS 24 May 21:07:39 21:11:32 38° 262° (W) 21:15:27 437.485
CUBEBUG 2 24 May 21:14:20 21:18:46 75° 257° (WSW) 21:23:07 437.445
Oscar 11 24 May 21:16:04 21:20:16 59° 74° (ENE) 21:24:31 145.826/435.025
ZACube-1 24 May 21:23:44 21:27:58 63° 74° (ENE) 21:32:07 437.345
CUTE 1.7 + AOD 2 24 May 21:27:20 21:30:12 18° 267° (W) 21:33:05 437.475
DELFI C3 24 May 21:28:19 21:31:56 35° 71° (ENE) 21:35:36 145.870
O/OREOS (USA 219) 24 May 21:33:18 21:36:29 19° 259° (W) 21:39:38 437.305
CUSAT 1 24 May 21:34:04 21:37:50 14° 55° (NE) 21:41:25 437.405
HO-68 24 May 21:36:59 21:42:47 27° 266° (W) 21:48:39 435.675
GONETS M04 24 May 21:37:28 21:45:01 34° 84° (E) 21:52:32
CINEMA 3 24 May 21:41:21 21:44:00 15° 269° (W) 21:46:38 145.822/145.860
BEESAT 3 24 May 21:43:07 21:47:05 77° 240° (WSW) 21:51:00 437.485
UWE-3 24 May 21:50:21 21:54:30 42° 261° (W) 21:58:33 435.000/436.395/437.385
AIST 1 24 May 21:52:41 21:57:02 67° 96° (E) 22:01:26
Cosmos 2499 24 May 21:54:57 22:00:01 21° 80° (E) 22:05:17 435.465 / 435.565
HUMSAT D 24 May 22:01:10 22:04:57 38° 72° (ENE) 22:08:45 437.325/437.525
COMPASS 1 24 May 22:01:59 22:04:10 14° 269° (W) 22:06:22 437.405
FUNcube-1 24 May 22:03:50 22:07:57 47° 261° (W) 22:12:02 145.935
AAUSAT CUBESAT 2 24 May 22:07:35 22:09:58 15° 268° (W) 22:12:21 437.432
ISS 24 May 22:13:48 22:16:26 23° 134° (SE) 22:19:05 145.825
PRISM 24 May 22:14:25 22:18:10 32° 290° (WNW) 22:21:51 437.425
UNISAT 6 24 May 22:16:00 22:17:49 12° 91° (E) 22:19:38 437.425
TIGRISAT 24 May 22:24:12 22:26:36 15° 92° (E) 22:28:59 435.000
ESTCUBE 1 24 May 22:25:58 22:28:43 16° 63° (ENE) 22:31:29 437.505/2401.250
DANDE 24 May 22:37:49 22:44:16 24° 63° (ENE) 22:50:30 436.750
BEESAT 2 24 May 22:39:46 22:43:21 32° 245° (WSW) 22:46:53 435.950
AIST 2 24 May 22:44:27 22:47:39 21° 45° (NE) 22:50:50 435.215
Oscar 11 24 May 22:55:07 22:56:47 12° 270° (W) 22:58:27 145.826/435.025
ANTELSAT 24 May 22:55:36 22:59:31 34° 98° (E) 23:03:28 437.575/2403.000
50 SAT 24 May 22:57:00 22:59:43 20° 68° (ENE) 23:02:27 437.505
VELOX 1 24 May 23:00:50 23:04:27 25° 67° (ENE) 23:08:05 145.980
RS-15 24 May 23:01:58 23:10:53 23° 359° (N) 23:20:00 29.354- 29.394
CUBEBUG 1 24 May 23:02:28 23:06:08 26° 68° (ENE) 23:09:49 437.445
ZACube-1 24 May 23:03:34 23:04:38 11° 270° (W) 23:05:41 437.345
DELFI C3 24 May 23:04:21 23:06:56 17° 267° (W) 23:09:32 145.870
DX 1 24 May 23:06:46 23:10:19 24° 67° (ENE) 23:13:53 434.975-435.025
CUSAT 1 24 May 23:13:47 23:21:44 65° 77° (ENE) 23:28:29 437.405
GONETS M04 24 May 23:32:51 23:41:25 54° 284° (WNW) 23:49:59
AIST 1 24 May 23:33:50 23:35:08 11° 293° (WNW) 23:36:26
AISAT 24 May 23:35:33 23:39:57 60° 74° (ENE) 23:44:23 437.250
HUMSAT D 24 May 23:38:07 23:40:44 16° 267° (W) 23:43:22 437.325/437.525
DUCHIFAT 1 24 May 23:40:48 23:43:35 17° 93° (E) 23:46:21 145.980
SPROUT 24 May 23:44:16 23:47:54 27° 69° (ENE) 23:51:32 437.525
Cosmos 2499 24 May 23:45:05 23:52:13 68° 281° (W) 23:59:52 435.465 / 435.565
ISS 24 May 23:49:35 23:52:43 42° 331° (NNW) 23:55:52 145.825
UNISAT 6 24 May 23:50:40 23:54:52 56° 286° (WNW) 23:59:07 437.425
TIGRISAT 24 May 23:59:26 00:03:32 48° 287° (WNW) 00:07:41 435.000
ESTCUBE 1 25 May 00:00:41 00:05:05 52° 260° (W) 00:09:32 437.505/2401.250
UKube-1 25 May 00:01:09 00:05:28 76° 75° (ENE) 00:09:50 .
PHONESAT 2.4 25 May 00:01:35 00:04:24 31° 159° (SSE) 00:07:13 2401.200-2431.200
BUGSAT 1 25 May 00:12:29 00:15:13 17° 93° (E) 00:17:55 437.445
POPSAT HIP 1 25 May 00:14:13 00:18:15 45° 99° (E) 00:22:16 437.405
QB50P1 25 May 00:14:56 00:18:59 46° 99° (E) 00:23:01 145.935-145.965
QB50P2 25 May 00:16:02 00:20:09 51° 100° (E) 00:24:14 145.880/145.840
POLYITAN 1 25 May 00:18:28 00:22:35 52° 100° (E) 00:26:40 437.675
DANDE 25 May 00:19:37 00:28:07 84° 263° (W) 00:36:00 436.750
TISAT 1 25 May 00:20:55 00:23:59 20° 66° (ENE) 00:27:05 437.305
AIST 2 25 May 00:22:22 00:26:19 43° 243° (WSW) 00:30:14 435.215
50 SAT 25 May 00:30:18 00:33:19 25° 264° (W) 00:36:22 437.505
ANTELSAT 25 May 00:32:49 00:36:02 21° 293° (WNW) 00:39:17 437.575/2403.000
NANOSAT C BR1 25 May 00:35:08 00:39:20 78° 103° (ESE) 00:43:30 145.865
VELOX 1 25 May 00:36:48 00:40:47 31° 263° (W) 00:44:46 145.980
CUBEBUG 1 25 May 00:38:26 00:42:18 29° 264° (W) 00:46:13 437.445
DX 1 25 May 00:42:29 00:46:22 31° 263° (W) 00:50:17 434.975-435.025
CUSAT 1 25 May 00:56:58 01:03:03 26° 278° (W) 01:08:30 437.405
Oscar 19 25 May 01:08:55 01:10:45 12° 89° (E) 01:12:35 437.125/150
SWISSCUBE 25 May 01:08:58 01:11:50 16° 62° (ENE) 01:14:41 437.505
SO-50 25 May 01:09:03 01:13:39 42° 116° (ESE) 01:18:17 436.795
ITUPSAT 1 25 May 01:13:27 01:16:15 16° 62° (ENE) 01:19:04 437.325
AISAT 25 May 01:14:49 01:16:49 13° 269° (W) 01:18:48 437.250
DUCHIFAT 1 25 May 01:15:33 01:19:26 38° 289° (WNW) 01:23:18 145.980
RS-15 25 May 01:17:27 01:28:28 36° 34° (NE) 01:39:31 29.354- 29.394
SPROUT 25 May 01:20:10 01:23:47 26° 265° (W) 01:27:25 437.525
ISS 25 May 01:27:46 01:29:48 15° 350° (N) 01:31:51 145.825
JAS-2 25 May 01:31:31 01:38:53 51° 98° (E) 01:45:28 435.910
BEESAT 25 May 01:37:44 01:41:42 27° 67° (ENE) 01:45:41 436.000
PHONESAT 2.4 25 May 01:37:50 01:40:58 73° 175° (S) 01:44:05 2401.200-2431.200
Cosmos 2499 25 May 01:44:43 01:47:06 12° 304° (WNW) 01:49:33 435.465 / 435.565
BUGSAT 1 25 May 01:47:01 01:50:43 35° 289° (WNW) 01:54:24 437.445
POPSAT HIP 1 25 May 01:51:07 01:53:41 16° 295° (WNW) 01:56:15 437.405
QB50P1 25 May 01:51:54 01:54:23 16° 296° (WNW) 01:56:53 145.935-145.965
QB50P2 25 May 01:53:14 01:55:32 14° 296° (WNW) 01:57:49 145.880/145.840
TISAT 1 25 May 01:55:30 01:59:24 36° 262° (W) 02:03:20 437.305
POLYITAN 1 25 May 01:55:43 01:57:57 14° 296° (WNW) 02:00:09 437.675
YUBILEINY 25 May 01:59:03 02:03:05 14° 57° (ENE) 02:07:05 435.215
DANDE 25 May 02:04:32 02:09:43 18° 281° (W) 02:14:43 436.750
Gurwin Techsat 1B 25 May 02:43:32 02:48:34 41° 98° (E) 02:53:34 435.225
SWISSCUBE 25 May 02:44:27 02:49:08 59° 259° (W) 02:53:51 437.505
Oscar 19 25 May 02:45:29 02:50:40 80° 285° (WNW) 02:55:48 437.125/150
ITUPSAT 1 25 May 02:48:54 02:53:35 60° 259° (W) 02:58:20 437.325
SO-50 25 May 02:50:03 02:54:17 28° 314° (NW) 02:58:31 436.795
Cosmos 2491 25 May 02:55:52 02:59:42 14° 74° (ENE) 03:03:30 435.465 / 435.565
AO-7 25 May 02:56:54 02:58:19 10° 86° (E) 02:59:43 29.400- 29.500
ISS 25 May 03:05:10 03:07:14 16° 11° (N) 03:09:19 145.825
PHONESAT 2.4 25 May 03:14:34 03:17:38 58° 192° (SSW) 03:20:43 2401.200-2431.200
BEESAT 25 May 03:15:08 03:19:22 32° 263° (W) 03:23:38 436.000
MOZHAYETS 4 25 May 03:16:22 03:20:02 24° 67° (ENE) 03:23:43
JAS-2 25 May 03:16:54 03:23:31 34° 298° (WNW) 03:29:37 435.910
ITAMSAT 1 25 May 03:20:29 03:25:15 35° 97° (E) 03:30:01 435.822/435.867
KKS-1 25 May 03:22:32 03:26:41 39° 71° (ENE) 03:30:52 437.445
RS-15 25 May 03:30:12 03:42:35 86° 240° (WSW) 03:54:52 29.354- 29.394
YUBILEINY 25 May 03:53:00 04:01:44 68° 79° (E) 04:10:28 435.215
STARS 25 May 04:06:17 04:10:37 59° 73° (ENE) 04:14:59 437.465
Gurwin Techsat 1B 25 May 04:23:57 04:28:17 26° 295° (WNW) 04:32:37 435.225
Oscar 19 25 May 04:27:57 04:29:07 11° 303° (WNW) 04:30:17 437.125/150
CUBESAT XI-V 25 May 04:33:55 04:37:11 19° 65° (ENE) 04:40:29 437.345
ISS 25 May 04:41:09 04:44:18 45° 30° (NNE) 04:47:27 145.825
HORYU 2 25 May 04:41:40 04:43:46 13° 91° (E) 04:45:52 437.375
AO-7 25 May 04:44:17 04:52:36 64° 104° (ESE) 05:00:53 29.400- 29.500
Cosmos 2491 25 May 04:46:06 04:54:53 75° 94° (E) 05:03:42 435.465 / 435.565
PHONESAT 2.4 25 May 04:51:45 04:54:03 19° 207° (SSW) 04:56:21 2401.200-2431.200
Cosmos 2504 25 May 04:51:57 04:59:59 49° 76° (ENE) 05:08:23 435.465 / 435.565
MOZHAYETS 4 25 May 04:52:56 04:57:02 33° 263° (W) 05:01:10
KKS-1 25 May 05:00:08 05:03:23 20° 266° (W) 05:06:40 437.445
ITAMSAT 1 25 May 05:00:09 05:04:36 29° 294° (WNW) 05:09:03 435.822/435.867
RS-15 25 May 05:44:43 05:53:17 23° 261° (W) 06:01:52 29.354- 29.394
STARS 25 May 05:45:24 05:47:21 13° 269° (W) 05:49:18 437.465
YUBILEINY 25 May 05:51:01 05:57:43 26° 279° (W) 06:04:27 435.215
CUBESAT XI-V 25 May 06:09:45 06:14:13 46° 262° (W) 06:18:44 437.345
CUTE-I 25 May 06:14:24 06:17:50 17° 91° (E) 06:21:15 437.470
HORYU 2 25 May 06:16:20 06:20:40 57° 287° (WNW) 06:25:01 437.375
ISS 25 May 06:18:00 06:20:33 21° 227° (SW) 06:23:06 145.825
STRAND 1 25 May 06:18:35 06:22:21 21° 64° (ENE) 06:26:08 437.568
AO-85 25 May 06:34:14 06:39:17 39° 115° (ESE) 06:44:17 145.980
AO-7 25 May 06:37:48 06:44:49 31° 303° (WNW) 06:51:50 29.400- 29.500
NOAA 18 25 May 06:40:45 06:45:46 36° 98° (E) 06:50:46 137.9125
Cosmos 2504 25 May 06:45:41 06:53:09 38° 274° (W) 07:00:58 435.465 / 435.565
Cosmos 2491 25 May 06:45:44 06:52:36 25° 295° (WNW) 06:59:31 435.465 / 435.565
BRITE-PL 25 May 07:00:06 07:05:14 54° 99° (E) 07:09:56 437.365/2234.400
Cubesat XI-IV 25 May 07:05:46 07:10:59 51° 100° (E) 07:16:11 437.490
DOVE 4 25 May 07:07:31 07:09:00 11° 88° (E) 07:10:29 437.250
NOAA 15 25 May 07:11:23 07:16:44 83° 104° (ESE) 07:22:01 137.62
LilacSat-2 25 May 07:19:04 07:22:51 73° 101° (ESE) 07:26:37 437.200
PRISM 25 May 07:29:45 07:32:22 16° 64° (ENE) 07:34:59 437.425
GOMX 1 25 May 07:39:36 07:44:21 61° 100° (E) 07:48:46 467.674
GONETS M04 25 May 07:48:04 07:53:02 16° 59° (ENE) 07:57:58
CUTE-I 25 May 07:52:59 07:58:16 61° 288° (WNW) 08:03:33 437.470
STRAND 1 25 May 07:56:16 08:01:11 48° 261° (W) 08:06:07 437.568
CINEMA 3 25 May 07:58:51 08:00:16 11° 90° (E) 08:01:42 145.822/145.860
AIST 1 25 May 08:00:41 08:03:34 17° 71° (ENE) 08:06:26
AUBIESAT-1 25 May 08:09:52 08:10:19 10° 97° (E) 08:10:44 437.475
M-CUBED/EXP-1 PRIME 25 May 08:12:42 08:14:34 14° 99° (E) 08:16:25 437.505
AO-85 25 May 08:14:54 08:19:51 35° 312° (NW) 08:24:43 145.980
NOAA 18 25 May 08:21:34 08:26:19 31° 294° (WNW) 08:31:03 137.9125
BRITE-PL 25 May 08:39:34 08:43:11 19° 298° (WNW) 08:46:36 437.365/2234.400
CANX-2 25 May 08:42:43 08:46:48 42° 98° (E) 08:50:52 2200.000
DOVE 4 25 May 08:42:49 08:47:13 60° 286° (WNW) 08:51:24 437.250
Cubesat XI-IV 25 May 08:46:40 08:50:41 22° 297° (WNW) 08:54:42 437.490
SEEDS 25 May 08:51:15 08:55:06 33° 97° (E) 08:58:57 437.485
NOAA 15 25 May 08:53:09 08:55:47 14° 301° (WNW) 08:58:24 137.62
HO-68 25 May 09:02:39 09:09:45 61° 102° (ESE) 09:16:49 435.675
PRISM 25 May 09:03:23 09:07:19 43° 261° (W) 09:11:19 437.425
CUBEBUG 2 25 May 09:05:43 09:08:51 20° 94° (E) 09:12:00 437.445
Oscar 11 25 May 09:05:47 09:06:47 11° 89° (E) 09:07:46 145.826/435.025
CUTE 1.7 + AOD 2 25 May 09:10:23 09:14:40 77° 101° (E) 09:18:57 437.475
ZACube-1 25 May 09:14:04 09:15:24 11° 90° (E) 09:16:44 437.345
UNISAT 6 25 May 09:15:37 09:17:26 12° 63° (ENE) 09:19:14 437.425
GOMX 1 25 May 09:19:14 09:21:49 15° 299° (WNW) 09:24:19 467.674
TIGRISAT 25 May 09:23:34 09:25:53 14° 64° (ENE) 09:28:10 435.000
CINEMA 3 25 May 09:33:43 09:37:49 55° 286° (WNW) 09:41:51 145.822/145.860
Cosmos 2499 25 May 09:34:49 09:42:57 46° 75° (ENE) 09:51:20 435.465 / 435.565
AIST 1 25 May 09:37:16 09:41:22 40° 268° (W) 09:45:24
UWE-3 25 May 09:39:40 09:43:29 34° 97° (E) 09:47:18 435.000/436.395/437.385
SO-50 25 May 09:40:30 09:44:57 38° 50° (NE) 09:49:13 436.795
AUBIESAT-1 25 May 09:41:56 09:45:04 39° 293° (WNW) 09:48:09 437.475
COMPASS 1 25 May 09:42:16 09:46:31 90° 266° (W) 09:50:44 437.405
GONETS M04 25 May 09:42:42 09:51:27 78° 81° (E) 10:00:08
M-CUBED/EXP-1 PRIME 25 May 09:46:25 09:49:16 27° 295° (WNW) 09:52:04 437.505
AAUSAT CUBESAT 2 25 May 09:47:34 09:51:48 83° 105° (ESE) 09:55:59 437.432
PCSat 25 May 09:50:22 09:54:49 27° 108° (ESE) 09:59:18 145.827
FUNcube-1 25 May 09:51:43 09:55:22 29° 96° (E) 09:59:03 145.935
ANTELSAT 25 May 09:54:35 09:58:26 31° 70° (ENE) 10:02:15 437.575/2403.000
O/OREOS (USA 219) 25 May 10:05:15 10:09:36 46° 107° (ESE) 10:13:58 437.305
CANX-2 25 May 10:19:29 10:22:20 18° 294° (WNW) 10:25:11 2200.000
SEEDS 25 May 10:27:22 10:30:37 22° 292° (WNW) 10:33:51 437.485
DUCHIFAT 1 25 May 10:33:35 10:35:49 14° 64° (ENE) 10:38:02 145.980
Oscar 11 25 May 10:39:02 10:43:21 67° 285° (WNW) 10:47:39 145.826/435.025
DELFI C3 25 May 10:40:13 10:44:13 60° 100° (E) 10:48:12 145.870
CUBEBUG 2 25 May 10:41:52 10:45:32 31° 290° (WNW) 10:49:15 437.445
ZACube-1 25 May 10:47:56 10:52:03 59° 286° (WNW) 10:56:12 437.345
CUTE 1.7 + AOD 2 25 May 10:49:09 10:49:53 10° 298° (WNW) 10:50:38 437.475
UNISAT 6 25 May 10:49:15 10:53:37 65° 258° (WSW) 10:57:56 437.425
HO-68 25 May 10:51:09 10:56:59 28° 301° (WNW) 11:02:48 435.675
TIGRISAT 25 May 10:57:49 11:02:09 55° 260° (W) 11:06:24 435.000
BUGSAT 1 25 May 11:03:00 11:05:15 14° 64° (ENE) 11:07:28 437.445
POPSAT HIP 1 25 May 11:06:43 11:10:33 34° 70° (ENE) 11:14:23 437.405
QB50P1 25 May 11:07:21 11:11:13 35° 71° (ENE) 11:15:05 145.935-145.965
QB50P2 25 May 11:08:36 11:12:32 38° 71° (ENE) 11:16:29 145.880/145.840
POLYITAN 1 25 May 11:11:01 11:14:58 39° 71° (ENE) 11:18:56 437.675
UWE-3 25 May 11:16:42 11:19:44 20° 293° (WNW) 11:22:48 435.000/436.395/437.385
HUMSAT D 25 May 11:19:27 11:23:36 74° 102° (ESE) 11:27:46 437.325/437.525
SO-50 25 May 11:21:24 11:25:13 25° 248° (WSW) 11:28:55 436.795
NANOSAT C BR1 25 May 11:27:00 11:31:09 56° 74° (ENE) 11:35:17 145.865
Cosmos 2499 25 May 11:28:09 11:35:56 41° 273° (W) 11:44:00 435.465 / 435.565
FUNcube-1 25 May 11:28:11 11:31:30 23° 292° (WNW) 11:34:50 145.935
AISAT 25 May 11:28:11 11:29:28 11° 90° (E) 11:30:44 437.250
ANTELSAT 25 May 11:31:40 11:35:10 23° 265° (W) 11:38:38 437.575/2403.000
PCSat 25 May 11:32:47 11:37:58 44° 306° (NW) 11:43:10 145.827
BEESAT 3 25 May 11:35:04 11:37:37 17° 111° (ESE) 11:40:10 437.485
GONETS M04 25 May 11:41:11 11:47:13 21° 281° (W) 11:53:15
JAS-2 25 May 11:43:18 11:49:10 26° 59° (ENE) 11:55:19 435.910
O/OREOS (USA 219) 25 May 11:45:57 11:49:15 19° 305° (NW) 11:52:33 437.305
DANDE 25 May 11:48:24 11:51:29 15° 77° (ENE) 11:54:59 436.750
UKube-1 25 May 11:50:11 11:51:59 12° 91° (E) 11:53:47 .
ESTCUBE 1 25 May 11:53:13 11:57:17 31° 96° (E) 12:01:19 437.505/2401.250
50 SAT 25 May 11:59:12 12:02:19 25° 96° (E) 12:05:26 437.505
DUCHIFAT 1 25 May 12:06:56 12:11:04 53° 260° (W) 12:15:12 145.980
CUSAT 1 25 May 12:14:49 12:20:43 62° 93° (E) 12:28:05 437.405
DELFI C3 25 May 12:17:06 12:18:34 12° 297° (WNW) 12:20:02 145.870
Oscar 19 25 May 12:24:58 12:28:37 20° 63° (ENE) 12:32:16 437.125/150
VELOX 1 25 May 12:26:18 12:30:35 47° 99° (E) 12:34:50 145.980
CUBEBUG 1 25 May 12:26:20 12:30:36 49° 99° (E) 12:34:49 437.445
DX 1 25 May 12:30:03 12:34:13 42° 99° (E) 12:38:20 434.975-435.025
BEESAT 2 25 May 12:31:21 12:35:03 39° 116° (ESE) 12:38:47 435.950
BUGSAT 1 25 May 12:36:04 12:40:11 53° 260° (W) 12:44:18 437.445
POPSAT HIP 1 25 May 12:43:15 12:46:24 20° 266° (W) 12:49:34 437.405
QB50P1 25 May 12:44:00 12:47:05 19° 266° (W) 12:50:11 145.935-145.965
QB50P2 25 May 12:45:34 12:48:29 18° 267° (W) 12:51:24 145.880/145.840
POLYITAN 1 25 May 12:48:05 12:50:56 17° 267° (W) 12:53:48 437.675
HUMSAT D 25 May 12:58:14 12:58:38 10° 298° (WNW) 12:59:02 437.325/437.525
AISAT 25 May 13:02:00 13:06:24 67° 286° (WNW) 13:10:45 437.250
SPROUT 25 May 13:05:15 13:09:24 50° 99° (E) 13:13:32 437.525
NANOSAT C BR1 25 May 13:05:29 13:07:13 12° 269° (W) 13:08:58 145.865
BEESAT 3 25 May 13:11:13 13:14:58 42° 307° (NW) 13:18:46 437.485
UKube-1 25 May 13:24:08 13:28:24 58° 286° (WNW) 13:32:37 .
JAS-2 25 May 13:26:14 13:33:24 71° 258° (WSW) 13:41:14 435.910
DANDE 25 May 13:27:52 13:33:00 74° 282° (WNW) 13:39:54 436.750
ESTCUBE 1 25 May 13:30:13 13:33:57 26° 293° (WNW) 13:37:41 437.505/2401.250
50 SAT 25 May 13:33:05 13:35:56 21° 292° (WNW) 13:38:48 437.505
TISAT 1 25 May 13:39:13 13:42:58 32° 97° (E) 13:46:42 437.305
AO-7 25 May 13:54:09 13:59:45 20° 50° (NE) 14:05:20 29.400- 29.500
CUSAT 1 25 May 13:58:23 14:03:33 25° 297° (WNW) 14:09:34 437.405
Oscar 19 25 May 14:02:24 14:07:29 55° 259° (W) 14:12:37 437.125/150
CUBEBUG 1 25 May 14:03:46 14:06:29 16° 296° (WNW) 14:09:10 437.445
VELOX 1 25 May 14:03:47 14:06:40 17° 296° (WNW) 14:09:33 145.980
Gurwin Techsat 1B 25 May 14:04:34 14:09:50 66° 73° (ENE) 14:15:07 435.225
DX 1 25 May 14:07:07 14:10:05 18° 296° (WNW) 14:13:02 434.975-435.025
BEESAT 2 25 May 14:09:58 14:13:03 21° 314° (NW) 14:16:08 435.950
AIST 2 25 May 14:19:45 14:23:31 36° 116° (ESE) 14:27:19 435.215
ITAMSAT 1 25 May 14:38:25 14:43:26 55° 71° (ENE) 14:48:29 435.822/435.867
SPROUT 25 May 14:42:32 14:44:56 15° 296° (WNW) 14:47:20 437.525
SWISSCUBE 25 May 14:44:37 14:49:00 34° 97° (E) 14:53:21 437.505
ITUPSAT 1 25 May 14:49:24 14:53:46 34° 97° (E) 14:58:07 437.325
Cosmos 2491 25 May 14:56:49 15:04:47 37° 71° (ENE) 15:12:39 435.465 / 435.565
YUBILEINY 25 May 15:02:53 15:06:57 14° 75° (ENE) 15:11:01 435.215
AO-85 25 May 15:06:33 15:10:49 32° 47° (NE) 15:14:44 145.980
BEESAT 25 May 15:14:24 15:19:09 63° 102° (ESE) 15:23:53 436.000
TISAT 1 25 May 15:15:16 15:18:26 21° 293° (WNW) 15:21:36 437.305
DANDE 25 May 15:15:18 15:17:37 12° 307° (NW) 15:20:08 436.750
JAS-2 25 May 15:17:06 15:19:48 12° 278° (W) 15:22:34 435.910
HORYU 2 25 May 15:40:15 15:42:26 14° 62° (ENE) 15:44:37 437.375
AO-7 25 May 15:43:03 15:51:20 84° 70° (ENE) 15:59:42 29.400- 29.500
Gurwin Techsat 1B 25 May 15:47:11 15:50:14 15° 270° (W) 15:53:19 435.225
RS-15 25 May 15:50:24 15:54:06 12° 93° (E) 15:57:51 29.354- 29.394
AIST 2 25 May 15:58:43 16:02:05 24° 313° (NW) 16:05:29 435.215
STARS 25 May 15:58:45 15:59:16 10° 90° (E) 15:59:47 437.465
ITAMSAT 1 25 May 16:19:45 16:23:14 18° 268° (W) 16:26:44 435.822/435.867
SWISSCUBE 25 May 16:22:41 16:26:38 26° 294° (WNW) 16:30:34 437.505
ITUPSAT 1 25 May 16:27:29 16:31:28 26° 293° (WNW) 16:35:26 437.325
NOAA 18 25 May 16:32:42 16:32:49 10° 55° (NE) 16:32:56 137.9125
MOZHAYETS 4 25 May 16:47:09 16:51:42 56° 100° (E) 16:56:14
AO-85 25 May 16:47:13 16:51:12 29° 248° (WSW) 16:54:52 145.980
KKS-1 25 May 16:49:26 16:53:53 79° 104° (ESE) 16:58:17 437.445
Cubesat XI-IV 25 May 16:52:09 16:53:55 12° 57° (ENE) 16:55:43 437.490
Cosmos 2491 25 May 16:53:31 17:01:48 49° 271° (W) 17:10:02 435.465 / 435.565
YUBILEINY 25 May 16:53:31 17:02:11 78° 95° (E) 17:10:54 435.215
BEESAT 25 May 16:53:40 16:56:25 15° 298° (WNW) 16:59:10 436.000
NOAA 15 25 May 16:54:03 16:57:35 18° 61° (ENE) 17:01:06 137.62
HORYU 2 25 May 17:14:06 17:18:29 62° 259° (W) 17:22:52 437.375
Cosmos 2504 25 May 17:31:38 17:38:00 36° 86° (E) 17:44:40 435.465 / 435.565
STARS 25 May 17:31:44 17:36:06 71° 285° (WNW) 17:40:25 437.465
CUTE-I 25 May 17:35:58 17:40:27 29° 66° (ENE) 17:44:58 437.470
AO-7 25 May 17:39:19 17:45:00 20° 269° (W) 17:50:44 29.400- 29.500
